Weather History for KANW - November, 2011

Change the Weather History Date:

Tuesday, November 15, 2011

  Actual Average Record
Temperature  
Mean Temperature 34 °F -  
Max Temperature 42 °F 45 °F 73 °F (1999)
Min Temperature 26 °F 24 °F -3 °F (2014)
Degree Days  
Heating Degree Days 31    
Moisture  
Dew Point 15 °F    
Average Humidity 49    
Maximum Humidity 80    
Minimum Humidity 20    
Precipitation  
Precipitation 0.00 in - - ()
Sea Level Pressure  
Sea Level Pressure 29.83 in    
Wind  
Wind Speed 9 mph (WNW)    
Max Wind Speed 24 mph    
Max Gust Speed 32 mph    
Visibility 10 miles    
Events      
Averages and records for this station are not official NWS values.
T = Trace of Precipitation, MM = Missing Value Source: NWS Daily Summary

Daily Weather History Graph

Daily Weather History Graph

Search for Another Location

Airport or City:

Trip Planner

Search our weather history database for the weather conditions in past years. The results will help you decide how hot, cold, wet, or windy it might be!

Date:

Astronomy

Nov. 15, 2011 Rise Set
Actual Time 7:31 AM CST 5:17 PM CST
Civil Twilight 7:00 AM CST 5:47 PM CST
Nautical Twilight 6:26 AM CST 6:22 PM CST
Astronomical Twilight 5:53 AM CST 6:55 PM CST
Moon 9:28 PM CST (11/15) 11:32 AM CST (11/15)
Length of Visible Light 10h 47m
Length of Day
9h 46m
Waning Gibbous, 79% of the Moon is Illuminated
Nov 15
Waning Gibbous
Nov 18
Last Quarter
Nov 25
New
Dec 2
First Quarter
Dec 10
Full

Hourly Weather History & Observations

Time (CST) Temp. Windchill Dew Point Humidity Pressure Visibility Wind Dir Wind Speed Gust Speed Precip Events Conditions
12:15 AM 32.0 °F - 19.4 °F 60% 29.56 in 10.0 mi Calm Calm - N/A   Clear
12:35 AM 32.0 °F 23.6 °F 19.4 °F 60% 29.57 in 10.0 mi WSW 10.4 mph - N/A   Clear
12:55 AM 30.2 °F 25.4 °F 19.4 °F 64% 29.57 in 10.0 mi West 4.6 mph - N/A   Clear
1:15 AM 30.2 °F 23.4 °F 19.4 °F 64% 29.58 in 10.0 mi West 6.9 mph - N/A   Clear
1:35 AM 32.0 °F 24.8 °F 19.4 °F 60% 29.60 in 10.0 mi WNW 8.1 mph - N/A   Clear
2:55 AM 28.4 °F 23.3 °F 19.4 °F 69% 29.63 in 10.0 mi West 4.6 mph - N/A   Clear
3:15 AM 28.4 °F 21.2 °F 19.4 °F 69% 29.63 in 10.0 mi West 6.9 mph - N/A   Clear
3:35 AM 28.4 °F 21.2 °F 19.4 °F 69% 29.63 in 10.0 mi WSW 6.9 mph - N/A   Clear
3:55 AM 28.4 °F 20.4 °F 19.4 °F 69% 29.63 in 10.0 mi WSW 8.1 mph - N/A   Clear
4:15 AM 28.4 °F 21.2 °F 21.2 °F 74% 29.64 in 10.0 mi West 6.9 mph - N/A   Clear
4:35 AM 26.6 °F 19.1 °F 21.2 °F 80% 29.64 in 10.0 mi West 6.9 mph - N/A   Clear
4:55 AM 28.4 °F 22.2 °F 21.2 °F 74% 29.64 in 10.0 mi West 5.8 mph - N/A   Clear
5:15 AM 28.4 °F 22.2 °F 21.2 °F 74% 29.65 in 10.0 mi West 5.8 mph - N/A   Clear
5:35 AM 26.6 °F 19.1 °F 19.4 °F 74% 29.67 in 10.0 mi West 6.9 mph - N/A   Clear
5:55 AM 26.6 °F 19.1 °F 19.4 °F 74% 29.68 in 10.0 mi West 6.9 mph - N/A   Clear
7:15 AM 28.4 °F 21.2 °F 21.2 °F 74% 29.72 in 10.0 mi West 6.9 mph - N/A   Clear
7:35 AM 28.4 °F 19.7 °F 21.2 °F 74% 29.74 in 10.0 mi WNW 9.2 mph - N/A   Clear
7:55 AM 30.2 °F 22.6 °F 21.2 °F 69% 29.76 in 10.0 mi WNW 8.1 mph - N/A   Clear
8:15 AM 30.2 °F 22.6 °F 23.0 °F 75% 29.77 in 10.0 mi WNW 8.1 mph - N/A   Clear
8:35 AM 32.0 °F 25.6 °F 23.0 °F 69% 29.78 in 10.0 mi WNW 6.9 mph - N/A   Clear
8:55 AM 33.8 °F 26.4 °F 26.6 °F 75% 29.80 in 10.0 mi NW 9.2 mph - N/A   Clear
9:15 AM 35.6 °F 26.6 °F 26.6 °F 70% 29.80 in 10.0 mi NW 13.8 mph 18.4 mph N/A   Clear
9:35 AM 37.4 °F 28.5 °F 26.6 °F 65% 29.81 in 10.0 mi NW 15.0 mph 20.7 mph N/A   Clear
9:55 AM 37.4 °F 28.2 °F 26.6 °F 65% 29.82 in 10.0 mi NNW 16.1 mph - N/A   Clear
10:15 AM 39.2 °F 29.6 °F 26.6 °F 61% 29.83 in 10.0 mi NNW 19.6 mph 24.2 mph N/A   Clear
10:35 AM 41.0 °F 31.1 °F 23.0 °F 49% 29.84 in 10.0 mi NNW 23.0 mph 29.9 mph N/A   Clear
10:55 AM 41.0 °F 31.1 °F 23.0 °F 49% 29.86 in 10.0 mi NNW 23.0 mph 27.6 mph N/A   Clear
11:15 AM 41.0 °F 31.1 °F 21.2 °F 45% 29.87 in 10.0 mi NW 23.0 mph 31.1 mph N/A   Scattered Clouds
11:35 AM 41.0 °F 31.4 °F 21.2 °F 45% 29.87 in 10.0 mi NNW 21.9 mph 32.2 mph N/A   Mostly Cloudy
11:55 AM 41.0 °F 31.1 °F 19.4 °F 42% 29.87 in 10.0 mi NW 23.0 mph 29.9 mph N/A   Scattered Clouds
12:15 PM 41.0 °F 32.8 °F 15.8 °F 36% 29.87 in 10.0 mi NW 16.1 mph 25.3 mph N/A   Scattered Clouds
12:35 PM 41.0 °F 32.5 °F 14.0 °F 33% 29.87 in 10.0 mi NW 17.3 mph 27.6 mph N/A   Scattered Clouds
12:55 PM 42.8 °F 34.0 °F 15.8 °F 34% 29.88 in 10.0 mi NW 20.7 mph 26.5 mph N/A   Mostly Cloudy
1:15 PM 41.0 °F 31.4 °F 14.0 °F 33% 29.89 in 10.0 mi NW 21.9 mph 28.8 mph N/A   Overcast
1:35 PM 41.0 °F 32.2 °F 14.0 °F 33% 29.90 in 10.0 mi NW 18.4 mph 26.5 mph N/A   Overcast
1:55 PM 41.0 °F 30.9 °F 12.2 °F 31% 29.90 in 10.0 mi NW 24.2 mph 28.8 mph N/A   Overcast
2:15 PM 41.0 °F 32.2 °F 10.4 °F 29% 29.90 in 10.0 mi NNW 18.4 mph 25.3 mph N/A   Mostly Cloudy
2:35 PM 39.2 °F 30.2 °F 10.4 °F 31% 29.91 in 10.0 mi NW 17.3 mph 26.5 mph N/A   Mostly Cloudy
2:55 PM 41.0 °F 32.2 °F 5.0 °F 23% 29.92 in 10.0 mi NW 18.4 mph 24.2 mph N/A   Overcast
3:15 PM 41.0 °F 31.6 °F 3.2 °F 21% 29.92 in 10.0 mi NW 20.7 mph 27.6 mph N/A   Overcast
3:35 PM 39.2 °F 30.8 °F 3.2 °F 22% 29.94 in 10.0 mi NW 15.0 mph 21.9 mph N/A   Scattered Clouds
3:55 PM 39.2 °F 31.2 °F 3.2 °F 22% 29.94 in 10.0 mi NW 13.8 mph 24.2 mph N/A   Clear
4:15 PM 37.4 °F 28.2 °F -0.4 °F 20% 29.95 in 10.0 mi NW 16.1 mph 20.7 mph N/A   Clear
4:35 PM 37.4 °F 29.8 °F 1.4 °F 22% 29.96 in 10.0 mi NW 11.5 mph 23.0 mph N/A   Clear
4:55 PM 35.6 °F 28.6 °F 3.2 °F 26% 29.96 in 10.0 mi NW 9.2 mph - N/A   Clear
5:15 PM 33.8 °F 26.4 °F 3.2 °F 28% 29.97 in 10.0 mi NW 9.2 mph - N/A   Clear
5:35 PM 33.8 °F 28.6 °F 5.0 °F 30% 29.97 in 10.0 mi NW 5.8 mph - N/A   Clear
5:55 PM 32.0 °F 26.4 °F 5.0 °F 32% 29.98 in 10.0 mi WNW 5.8 mph - N/A   Clear
6:15 PM 32.0 °F 26.4 °F 5.0 °F 32% 29.99 in 10.0 mi NW 5.8 mph - N/A   Scattered Clouds
6:35 PM 32.0 °F 26.4 °F 5.0 °F 32% 29.99 in 10.0 mi NW 5.8 mph - N/A   Scattered Clouds
6:55 PM 32.0 °F 27.5 °F 5.0 °F 32% 29.99 in 10.0 mi WNW 4.6 mph - N/A   Clear
7:15 PM 30.2 °F 24.3 °F 5.0 °F 34% 29.99 in 10.0 mi NW 5.8 mph - N/A   Clear
7:35 PM 30.2 °F 23.4 °F 5.0 °F 34% 30.01 in 10.0 mi NW 6.9 mph - N/A   Clear
7:55 PM 26.6 °F 20.0 °F 8.6 °F 47% 30.01 in 10.0 mi WNW 5.8 mph - N/A   Clear
8:15 PM 26.6 °F 21.2 °F 8.6 °F 47% 30.01 in 10.0 mi WNW 4.6 mph - N/A   Clear
8:35 PM 26.6 °F 19.1 °F 8.6 °F 47% 30.03 in 10.0 mi WNW 6.9 mph - N/A   Mostly Cloudy
8:55 PM 30.2 °F 24.3 °F 10.4 °F 44% 30.03 in 10.0 mi WNW 5.8 mph - N/A   Overcast
9:15 PM 28.4 °F 23.3 °F 8.6 °F 43% 30.04 in 10.0 mi NW 4.6 mph - N/A   Overcast
9:35 PM 28.4 °F 21.2 °F 8.6 °F 43% 30.05 in 10.0 mi WNW 6.9 mph - N/A   Overcast
9:55 PM 28.4 °F 23.3 °F 8.6 °F 43% 30.06 in 10.0 mi West 4.6 mph - N/A   Mostly Cloudy
10:15 PM 28.4 °F 22.2 °F 8.6 °F 43% 30.05 in 10.0 mi West 5.8 mph - N/A   Mostly Cloudy
10:35 PM 28.4 °F 22.2 °F 8.6 °F 43% 30.06 in 10.0 mi West 5.8 mph - N/A   Mostly Cloudy
10:55 PM 28.4 °F 22.2 °F 10.4 °F 47% 30.07 in 10.0 mi West 5.8 mph - N/A   Overcast
11:15 PM 30.2 °F 23.4 °F 10.4 °F 44% 30.08 in 10.0 mi West 6.9 mph - N/A   Overcast
11:35 PM 30.2 °F 23.4 °F 10.4 °F 44% 30.08 in 10.0 mi WNW 6.9 mph - N/A   Overcast
11:55 PM 28.4 °F 24.6 °F 10.4 °F 47% 30.08 in 10.0 mi WNW 3.5 mph - N/A   Mostly Cloudy